[[{"header":{"parameterUnit":"m.s-1","parameterCategory":2,"la1":30.2991,"la2":30.254,"lo1":-89.0895,"lo2":-89.0444,"dy":0.0017,"dx":0.0017,"nx":28,"ny":28,"refTime":"2025-06-07T21:00:00:Z","depth":"0","parameterNumber":2,"parameterNumberName":"U-component_of_CURRENTS"},"data":[0,0,0,0,0,0,0,0,0,0,0,0,0,0,0,0,0,0,0,0,0,0,0,0,0,0,0,0,0,0,0,0,0,0,0,0,0,0,0,0,0,0,0,0,0,0,0,0,0,0,0,0,0,0,0,0,0,0,0.385,0.385,0,0.3792,0.379,0.3789,0.3604,0.36,0.3597,0.3593,0.3505,0.3505,0.3506,0,0,0,0,0,0,0,0,0,0,0,0,0,0.3688,0.3692,0.385,0.385,0.385,0.3792,0.379,0.3789,0.3604,0.36,0.3596,0.3592,0.3504,0.3505,0.3506,0,0,0,0,0,0,0,0,0,0,0,0,0,0.37,0.3693,0.385,0.3756,0.3747,0.3792,0.379,0.3788,0.3605,0.36,0.3595,0.359,0.3504,0.3505,0.3507,0.3618,0,0,0.351,0.3511,0,0,0,0,0,0,0,0,0.37,0.3706,0.377,0.3763,0.3753,0.3706,0.3701,0.3733,0.3606,0.3652,0.3593,0.3587,0.3578,0.3573,0.3563,0.3614,0.361,0.3511,0.3511,0.3512,0.3512,0,0,0,0,0,0,0,0.37,0.3707,0.3819,0.377,0.376,0.3679,0.3675,0.3705,0.3638,0.3647,0.3635,0.3642,0.3571,0.3563,0.356,0.3609,0.3511,0.3512,0.3512,0.3513,0.3669,0.3672,0,0,0,0,0,0,0.3735,0.3708,0.3821,0.3818,0.3721,0.3687,0.3682,0.372,0.3638,0.3623,0.3647,0.3634,0.3563,0.3559,0.3556,0.3713,0.3512,0.3513,0.3514,0.3666,0.367,0.3674,0,0,0,0,0,0,0.3732,0.3747,0.3824,0.3764,0.3769,0.3697,0.374,0.3722,0.3691,0.364,0.3621,0.3631,0.3559,0.3554,0.359,0.3706,0.3514,0.3515,0.3662,0.3667,0.3672,0.4008,0,0,0,0,0,0,0.3728,0.3747,0.3776,0.3769,0.3774,0.3913,0.3745,0.3725,0.3708,0.3689,0.3623,0.3609,0.3554,0.3589,0.3592,0.3704,0.3516,0.3658,0.3664,0.367,0.3992,0.4024,0.405,0,0,0,0,0,0.3723,0.3844,0.3779,0.3792,0.3822,0.392,0.3918,0.3838,0.3713,0.3772,0.3683,0.3609,0.3629,0.3595,0.3597,0.3712,0.3654,0.3662,0.367,0.3979,0.4018,0.405,0,0,0,0,0,0,0.3812,0.3836,0.3765,0.3886,0.3909,0.3892,0.3937,0.3854,0.3827,0.3795,0.3675,0.3664,0.3751,0.3671,0.3634,0.3765,0.3623,0.3632,0.3858,0.3893,0.3922,0.3891,0.3517,0,0,0,0,0,0.3841,0.3915,0.3922,0.4013,0.4035,0.3967,0.3979,0.3945,0.3924,0.39,0.3853,0.3791,0.3794,0.3787,0.3801,0.3879,0.3819,0.394,0.397,0.3995,0.3966,0.4004,0.4035,0.3698,0.3698,0.3698,0,0,0.3894,0.3919,0.3954,0.4032,0.4023,0.4084,0.3962,0.4043,0.4066,0.3908,0.3943,0.3927,0.3841,0.394,0.3966,0.3878,0.4072,0.4005,0.4028,0.3983,0.4015,0.4048,0.4078,0.3704,0.3703,0.3702,0,0,0.4037,0.4067,0.4146,0.4183,0.4221,0.4214,0.4237,0.4251,0.4233,0.4289,0.4176,0.4215,0.4202,0.4189,0.4159,0.4348,0.4248,0.4347,0.4457,0.4499,0.4528,0.4551,0.4584,0.4608,0.4336,0.4336,0.4337,0,0.4065,0.4167,0.4195,0.4269,0.4285,0.4267,0.4329,0.4361,0.438,0.4372,0.4342,0.4334,0.4318,0.4361,0.4432,0.4424,0.4404,0.4348,0.4542,0.4564,0.4582,0.4609,0.4631,0.4353,0.4351,0.435,0.4348,0,0.4237,0.4299,0.4378,0.4425,0.4475,0.4574,0.4596,0.4649,0.4614,0.4608,0.4684,0.4687,0.4642,0.4693,0.4619,0.4743,0.4679,0.4609,0.4467,0.4638,0.4654,0.4672,0.4378,0.4372,0.4367,0.4362,0,0,0.4308,0.445,0.4462,0.4458,0.4555,0.4604,0.4698,0.4752,0.4748,0.4846,0.485,0.4945,0.4925,0.4887,0.4857,0.4906,0.5092,0.4818,0.4812,0.4872,0.5181,0.5106,0.5116,0.506,0.5063,0.5065,0.5165,0,0.4385,0.4527,0.4584,0.4672,0.4721,0.4736,0.48,0.4852,0.4885,0.4932,0.4977,0.501,0.5003,0.5001,0.5076,0.5073,0.5138,0.5069,0.498,0.4976,0.4909,0.5134,0.496,0.5029,0.518,0.5183,0.5184,0,0.449,0.4556,0.4661,0.4711,0.473,0.478,0.4807,0.4873,0.4958,0.4986,0.5054,0.5071,0.5189,0.5144,0.5267,0.5219,0.5221,0.5229,0.5231,0.5033,0.4932,0.4864,0.5052,0.4878,0.5209,0.5207,0.5205,0,0.4466,0.4592,0.4654,0.4682,0.4767,0.4772,0.4804,0.4871,0.4896,0.5011,0.5034,0.5173,0.5213,0.5289,0.5342,0.5303,0.5453,0.5387,0.5326,0.532,0.5081,0.5047,0.5091,0.5463,0.5463,0.5462,0.5462,0,0.4521,0.4553,0.4634,0.4659,0.4676,0.4739,0.4758,0.481,0.4886,0.4923,0.5046,0.5098,0.5247,0.534,0.5387,0.5436,0.5496,0.5383,0.5357,0.5198,0.5176,0.4927,0.4854,0.5466,0.5465,0.5464,0.5464,0,0.4486,0.4566,0.4598,0.4661,0.4667,0.4662,0.4695,0.4715,0.4803,0.4852,0.489,0.5061,0.5224,0.5357,0.5488,0.5458,0.5377,0.5503,0.5315,0.5266,0.5019,0.4969,0.4822,0.4693,0.5465,0.5464,0.5463,0,0.4488,0.4513,0.4552,0.4547,0.4565,0.4569,0.4575,0.4657,0.4673,0.4812,0.4828,0.5018,0.5117,0.5322,0.5401,0.5508,0.5348,0.5317,0.5213,0.502,0.4947,0.4796,0.4687,0.5058,0.5054,0.5051,0.5048,0,0.4438,0.4447,0.447,0.4462,0.4453,0.4433,0.4443,0.444,0.454,0.459,0.4663,0.4756,0.5006,0.507,0.5233,0.5268,0.5071,0.5246,0.5095,0.4687,0.4472,0.4327,0.4979,0.5018,0.5021,0.5023,0.5025,0.5026,0.4361,0.4347,0.437,0.4341,0.433,0.4266,0.4204,0.4235,0.4231,0.4258,0.4442,0.4507,0.47,0.4941,0.4974,0.4864,0.4873,0.4678,0.4658,0.454,0.4335,0.493,0.49,0.4902,0.4904,0.4906,0.4907,0,0.4244,0.4248,0.4241,0.4185,0.4113,0.4144,0.4088,0.4006,0.3945,0.4052,0.4097,0.4179,0.4267,0.4429,0.4447,0.4275,0.4131,0.4137,0.3876,0.3817,0.4387,0.4285,0.4059,0.4059,0.4059,0.406,0.406,0.406,0.418,0.4143,0.4139,0.3979,0.3928,0.3762,0.3695,0.3613,0.3628,0.3553,0.3559,0.3661,0.3887,0.3999,0.3894,0.3813,0.3533,0.3392,0.3379,0.3764,0.3811,0.3856,0.3743,0.3407,0.3407,0.2663,0.2658,0.2653]},{"header":{"parameterUnit":"m.s-1","parameterCategory":2,"la1":30.2991,"la2":30.254,"lo1":-89.0895,"lo2":-89.0444,"dy":0.0017,"dx":0.0017,"nx":28,"ny":28,"refTime":"2025-06-07T21:00:00:Z","depth":"0","parameterNumber":3,"parameterNumberName":"V-component_of_CURRENTS"},"data":[0,0,0,0,0,0,0,0,0,0,0,0,0,0,0,0,0,0,0,0,0,0,0,0,0,0,0,0,0,0,0,0,0,0,0,0,0,0,0,0,0,0,0,0,0,0,0,0,0,0,0,0,0,0,0,0,0,0,0.032,0.032,0,0.0235,0.0234,0.0233,0.0092,0.009,0.0087,0.0085,0.0014,0.0014,0.0015,0,0,0,0,0,0,0,0,0,0,0,0,0,0.0316,0.0317,0.0321,0.032,0.0319,0.0235,0.0234,0.0232,0.0092,0.0089,0.0086,0.0084,0.0014,0.0014,0.0015,0,0,0,0,0,0,0,0,0,0,0,0,0,0.0281,0.0317,0.0321,0.024,0.0232,0.0235,0.0234,0.0232,0.0093,0.0089,0.0086,0.0082,0.0014,0.0014,0.0015,0.0092,0,0,0.0017,0.0017,0,0,0,0,0,0,0,0,0.0284,0.0282,0.0253,0.0246,0.0237,0.0172,0.0206,0.0186,0.0094,0.0144,0.0085,0.008,0.0072,0.0068,0.0057,0.0088,0.0085,0.0017,0.0017,0.0017,0.0017,0,0,0,0,0,0,0,0.0286,0.0284,0.0285,0.0252,0.0242,0.0192,0.0183,0.0201,0.0129,0.0139,0.0129,0.0124,0.0067,0.0057,0.0054,0.0084,0.0017,0.0017,0.0017,0.0018,0.0173,0.0176,0,0,0,0,0,0,0.0307,0.0287,0.0288,0.0282,0.0253,0.0195,0.0186,0.0195,0.0128,0.0114,0.0127,0.0118,0.0057,0.0054,0.0051,0.0163,0.0017,0.0018,0.0018,0.0169,0.0174,0.0178,0,0,0,0,0,0,0.0308,0.0309,0.0291,0.0283,0.0277,0.02,0.0211,0.0195,0.0174,0.0118,0.0104,0.0121,0.0054,0.0051,0.0087,0.0158,0.0018,0.0018,0.0165,0.017,0.0176,0.0372,0,0,0,0,0,0,0.0308,0.031,0.0329,0.0285,0.0278,0.0321,0.0214,0.0196,0.0178,0.0164,0.011,0.0099,0.0051,0.0087,0.0088,0.0156,0.0019,0.016,0.0167,0.0174,0.0361,0.0383,0.0403,0,0,0,0,0,0.0309,0.0376,0.0331,0.033,0.0306,0.0324,0.0318,0.0247,0.0181,0.0207,0.0166,0.01,0.0131,0.0092,0.0092,0.0162,0.0156,0.0165,0.0173,0.0351,0.0379,0.0403,0,0,0,0,0,0,0.0407,0.0367,0.0316,0.0371,0.0351,0.0301,0.0329,0.0265,0.025,0.0241,0.0157,0.0148,0.0202,0.0166,0.0123,0.0227,0.0131,0.014,0.0267,0.0292,0.0313,0.0329,0.0019,0,0,0,0,0,0.0433,0.0458,0.0411,0.0459,0.0458,0.0389,0.0385,0.0341,0.0318,0.0303,0.0266,0.024,0.0244,0.0252,0.025,0.0324,0.0263,0.0366,0.0388,0.0406,0.042,0.0395,0.0415,0.0206,0.0205,0.0205,0,0,0.048,0.0468,0.0478,0.0478,0.0458,0.0487,0.0379,0.0406,0.0431,0.0309,0.0355,0.0317,0.0278,0.0347,0.0369,0.0324,0.0438,0.0417,0.0433,0.0436,0.0406,0.0426,0.0443,0.0211,0.021,0.0209,0,0,0.0593,0.0586,0.0627,0.0624,0.0611,0.0588,0.0599,0.0564,0.0552,0.0596,0.051,0.0523,0.053,0.052,0.0511,0.0658,0.0546,0.0652,0.0781,0.0759,0.0775,0.0788,0.0748,0.0756,0.0669,0.0669,0.067,0,0.0635,0.0681,0.065,0.069,0.07,0.0639,0.0686,0.0696,0.0677,0.0694,0.0643,0.0651,0.0618,0.0682,0.0724,0.0708,0.0657,0.0685,0.0785,0.0797,0.0807,0.0761,0.0768,0.068,0.0679,0.0677,0.0676,0,0.0754,0.0789,0.0836,0.085,0.0875,0.0924,0.0917,0.0955,0.0931,0.0914,0.097,0.0928,0.0924,0.0924,0.0869,0.094,0.0867,0.0806,0.0715,0.084,0.0784,0.0787,0.0695,0.0691,0.0688,0.0685,0,0,0.0821,0.0892,0.0899,0.0926,0.0955,0.0992,0.1082,0.113,0.1187,0.1183,0.1248,0.1252,0.1202,0.119,0.1125,0.1111,0.1143,0.1001,0.0994,0.0953,0.1073,0.1042,0.104,0.1086,0.1087,0.1089,0.1007,0,0.0897,0.1011,0.1019,0.1127,0.1184,0.1178,0.1265,0.1312,0.1343,0.1412,0.1382,0.1419,0.1314,0.1315,0.1295,0.1192,0.1159,0.117,0.0964,0.0959,0.091,0.1047,0.097,0.0893,0.1009,0.101,0.101,0,0.0977,0.1046,0.1164,0.1259,0.1281,0.1338,0.1455,0.1522,0.161,0.1634,0.1665,0.1629,0.1648,0.1518,0.1415,0.142,0.1264,0.116,0.1153,0.1057,0.0935,0.0786,0.0892,0.0636,0.1013,0.1013,0.1013,0,0.1036,0.1139,0.1241,0.127,0.1376,0.143,0.1485,0.1585,0.1662,0.1769,0.1825,0.183,0.1833,0.1685,0.1501,0.145,0.1356,0.1253,0.1068,0.1062,0.0925,0.0905,0.0753,0.1142,0.1142,0.1143,0.1143,0,0.1117,0.1191,0.1272,0.1331,0.1448,0.1495,0.1628,0.1695,0.1807,0.192,0.1927,0.2007,0.1867,0.1801,0.1588,0.1381,0.1423,0.1123,0.1059,0.0994,0.0982,0.0692,0.0576,0.114,0.114,0.1141,0.1141,0,0.1173,0.1231,0.1336,0.1444,0.148,0.156,0.1683,0.1782,0.1884,0.2033,0.207,0.2147,0.2099,0.1932,0.1721,0.1499,0.1145,0.1174,0.1113,0.1046,0.0638,0.0537,0.0355,0.0258,0.0975,0.0974,0.0973,0,0.1221,0.1282,0.1397,0.1452,0.1496,0.1609,0.1691,0.1808,0.1911,0.2112,0.2186,0.2229,0.2282,0.2019,0.1681,0.136,0.1111,0.1008,0.0901,0.0645,0.0485,0.0419,0.0346,0.0784,0.0782,0.078,0.0778,0,0.1285,0.131,0.1394,0.1499,0.158,0.1695,0.1815,0.1913,0.207,0.2211,0.2393,0.2467,0.228,0.2009,0.1602,0.1327,0.0844,0.0958,0.0703,0.0358,0.0266,0.0131,0.0794,0.0762,0.0764,0.0765,0.0766,0.0766,0.1303,0.1352,0.1439,0.1534,0.1634,0.1769,0.1871,0.2021,0.2209,0.2446,0.2516,0.265,0.2223,0.1714,0.1377,0.0652,0.071,0.0355,0.0263,0.0227,0.012,0.0764,0.0661,0.0662,0.0663,0.0664,0.0664,0,0.1307,0.1368,0.1465,0.1587,0.169,0.1751,0.1944,0.2069,0.2287,0.2517,0.2693,0.2509,0.1962,0.1401,0.048,0.0013,-0.0145,-0.0256,-0.041,-0.0445,0.0109,0.0085,-0.0158,-0.0158,-0.0157,-0.0157,-0.0157,-0.0157,0.1311,0.1387,0.1437,0.1597,0.169,0.1848,0.1961,0.2178,0.2367,0.26,0.2658,0.27,0.2171,0.0616,-0.0433,-0.0653,-0.0941,-0.1011,-0.1103,-0.0801,-0.0753,-0.0707,-0.0759,-0.1174,-0.1175,-0.1651,-0.1656,-0.166]}],[{"header":{"parameterUnit":"m.s-1","parameterCategory":2,"la1":30.2991,"la2":30.254,"lo1":-89.0895,"lo2":-89.0444,"dy":0.0017,"dx":0.0017,"nx":28,"ny":28,"refTime":"2025-06-07T21:00:00:Z","depth":"2","parameterNumber":2,"parameterNumberName":"U-component_of_CURRENTS"},"data":[0,0,0,0,0,0,0,0,0,0,0,0,0,0,0,0,0,0,0,0,0,0,0,0,0,0,0,0,0,0,0,0,0,0,0,0,0,0,0,0,0,0,0,0,0,0,0,0,0,0,0,0,0,0,0,0,0,0,0.3468,0.347,0,0.3466,0.3464,0.3461,0.326,0.3257,0.3255,0.3252,0.3207,0.3209,0.321,0,0,0,0,0,0,0,0,0,0,0,0,0,0.318,0.3185,0.3467,0.347,0.3473,0.3467,0.3464,0.3461,0.326,0.3257,0.3254,0.3251,0.3207,0.3208,0.321,0,0,0,0,0,0,0,0,0,0,0,0,0,0.3227,0.3186,0.3467,0.3394,0.3389,0.3467,0.3464,0.346,0.3261,0.3257,0.3253,0.3249,0.3207,0.3208,0.321,0.3299,0,0,0.3216,0.3216,0,0,0,0,0,0,0,0,0.3224,0.3234,0.3402,0.3399,0.3395,0.3385,0.3348,0.3414,0.3262,0.3278,0.3252,0.3248,0.3285,0.328,0.3247,0.3297,0.3295,0.3216,0.3217,0.3218,0.3218,0,0,0,0,0,0,0,0.3221,0.3232,0.3437,0.3406,0.3402,0.3324,0.3323,0.3356,0.328,0.3277,0.3269,0.3318,0.3278,0.3245,0.3245,0.3294,0.3216,0.3217,0.3218,0.3219,0.3293,0.3294,0,0,0,0,0,0,0.3293,0.3231,0.3437,0.344,0.3332,0.3335,0.3333,0.3368,0.328,0.3272,0.3321,0.3309,0.3244,0.3243,0.3243,0.3341,0.3218,0.3219,0.322,0.3292,0.3293,0.3294,0,0,0,0,0,0,0.3286,0.3311,0.3438,0.3358,0.3373,0.3348,0.3386,0.3371,0.3347,0.332,0.3303,0.3318,0.3241,0.324,0.324,0.3338,0.322,0.3222,0.3291,0.3292,0.3294,0.354,0,0,0,0,0,0,0.3278,0.3308,0.3333,0.3364,0.3382,0.3533,0.3392,0.3374,0.3398,0.338,0.3315,0.3304,0.3238,0.3237,0.3242,0.3338,0.3223,0.329,0.3292,0.3293,0.3531,0.3549,0.3565,0,0,0,0,0,0.3267,0.3348,0.3334,0.336,0.3425,0.3541,0.354,0.3486,0.3402,0.3435,0.3331,0.3306,0.325,0.324,0.3245,0.3345,0.3289,0.3291,0.3293,0.3523,0.3546,0.3565,0,0,0,0,0,0,0.3234,0.3339,0.3323,0.3427,0.3503,0.3518,0.3559,0.3519,0.3461,0.3429,0.3331,0.3318,0.3368,0.3303,0.3294,0.3356,0.3264,0.3267,0.3436,0.3458,0.3475,0.3474,0.3225,0,0,0,0,0,0.3254,0.3347,0.3423,0.3522,0.356,0.3557,0.3587,0.3572,0.3554,0.352,0.3479,0.3409,0.3384,0.3372,0.3361,0.3407,0.3353,0.346,0.3478,0.3494,0.3488,0.3476,0.3493,0.33,0.33,0.33,0,0,0.3283,0.3356,0.3408,0.3525,0.3557,0.3566,0.3557,0.3655,0.3645,0.3538,0.3509,0.3508,0.3412,0.3449,0.3464,0.3403,0.3525,0.3496,0.3511,0.3496,0.348,0.3499,0.3516,0.3302,0.3302,0.3301,0,0,0.3309,0.3444,0.3452,0.3525,0.3627,0.3653,0.3694,0.374,0.3748,0.3778,0.367,0.3692,0.3677,0.3611,0.3568,0.3671,0.364,0.3701,0.3783,0.3774,0.3791,0.3804,0.38,0.3811,0.3686,0.3687,0.3687,0,0.3287,0.3328,0.3487,0.3485,0.3534,0.3678,0.3654,0.372,0.3756,0.3795,0.3799,0.3787,0.3734,0.3721,0.3741,0.3721,0.3716,0.3727,0.3803,0.3815,0.3825,0.3816,0.3826,0.3699,0.3697,0.3696,0.3695,0,0.3243,0.3291,0.3345,0.3364,0.3452,0.3537,0.3649,0.3738,0.3809,0.387,0.3989,0.3964,0.3949,0.3963,0.388,0.394,0.3919,0.3859,0.3769,0.3861,0.3844,0.385,0.3716,0.3712,0.3708,0.3705,0,0,0.3151,0.3253,0.327,0.3268,0.3406,0.349,0.3561,0.3684,0.3735,0.3913,0.3957,0.4024,0.4135,0.4087,0.4068,0.4054,0.4137,0.4007,0.4001,0.4035,0.4154,0.3971,0.3959,0.4126,0.4128,0.4129,0.4129,0,0.303,0.2988,0.3081,0.3106,0.312,0.3303,0.3362,0.353,0.3697,0.3817,0.3981,0.4066,0.4155,0.4187,0.4223,0.4161,0.4158,0.4143,0.4026,0.4022,0.3876,0.396,0.3701,0.3664,0.4133,0.4134,0.4135,0,0.2892,0.2926,0.2874,0.3003,0.3023,0.3071,0.3261,0.3338,0.3589,0.3721,0.3942,0.41,0.4234,0.4231,0.432,0.4334,0.4266,0.421,0.4208,0.3945,0.3848,0.3633,0.3655,0.4143,0.4142,0.4141,0.4141,0,0.2757,0.2791,0.2764,0.2807,0.2952,0.3006,0.3106,0.3335,0.3447,0.3707,0.3823,0.4082,0.4198,0.425,0.4301,0.4322,0.4297,0.4284,0.4055,0.4043,0.3739,0.3695,0.4249,0.4249,0.4249,0.4249,0.4249,0,0.26,0.2602,0.2727,0.275,0.2787,0.294,0.3033,0.3165,0.338,0.3503,0.382,0.3928,0.4212,0.4296,0.4294,0.4235,0.4331,0.4081,0.4028,0.3817,0.3782,0.4108,0.4092,0.4249,0.4249,0.4249,0.4249,0,0.2424,0.2486,0.251,0.2672,0.2725,0.2778,0.2974,0.3052,0.3285,0.3425,0.3534,0.387,0.3988,0.4165,0.418,0.4192,0.4119,0.4013,0.3765,0.3681,0.3883,0.3879,0.3836,0.383,0.3824,0.382,0.3816,0,0.2282,0.2283,0.2445,0.2477,0.2553,0.2666,0.2736,0.2977,0.3069,0.335,0.3386,0.3618,0.3751,0.3804,0.3788,0.3775,0.3868,0.3495,0.3451,0.3887,0.3841,0.3845,0.3849,0.3177,0.3168,0.3161,0.3156,0,0.208,0.2171,0.2218,0.2305,0.239,0.2461,0.2596,0.2659,0.2921,0.3058,0.3225,0.3366,0.3444,0.3381,0.3363,0.3305,0.352,0.3341,0.3849,0.3303,0.3259,0.3216,0.3242,0.3092,0.3098,0.3103,0.3106,0.3109,0.1949,0.1945,0.2061,0.212,0.221,0.2292,0.2351,0.2476,0.261,0.2783,0.2907,0.3007,0.3046,0.2925,0.2825,0.2806,0.3012,0.2954,0.298,0.3012,0.2917,0.2863,0.2606,0.2609,0.2612,0.2615,0.2617,0,0.1809,0.1845,0.1866,0.1978,0.2017,0.2181,0.2281,0.231,0.2418,0.2498,0.2607,0.2376,0.2342,0.2416,0.2289,0.2283,0.232,0.2217,0.2263,0.2324,0.238,0.2257,0.1769,0.1767,0.1765,0.1763,0,0,0.1738,0.1722,0.1746,0.1792,0.1916,0.2054,0.2142,0.214,0.2185,0.2086,0.2112,0.221,0.2357,0.2006,0.194,0.1869,0.21,0.1811,0.2487,0.2603,0.2657,0.2791,0.2667,0,0,0,0,0]},{"header":{"parameterUnit":"m.s-1","parameterCategory":2,"la1":30.2991,"la2":30.254,"lo1":-89.0895,"lo2":-89.0444,"dy":0.0017,"dx":0.0017,"nx":28,"ny":28,"refTime":"2025-06-07T21:00:00:Z","depth":"2","parameterNumber":3,"parameterNumberName":"V-component_of_CURRENTS"},"data":[0,0,0,0,0,0,0,0,0,0,0,0,0,0,0,0,0,0,0,0,0,0,0,0,0,0,0,0,0,0,0,0,0,0,0,0,0,0,0,0,0,0,0,0,0,0,0,0,0,0,0,0,0,0,0,0,0,0,-0.0142,-0.014,0,-0.0151,-0.0153,-0.0154,-0.0248,-0.0249,-0.0249,-0.025,-0.023,-0.0228,-0.0227,0,0,0,0,0,0,0,0,0,0,0,0,0,-0.0208,-0.0208,-0.0142,-0.014,-0.0139,-0.0151,-0.0153,-0.0154,-0.0248,-0.0249,-0.025,-0.0251,-0.023,-0.0229,-0.0227,0,0,0,0,0,0,0,0,0,0,0,0,0,-0.021,-0.0208,-0.0142,-0.0175,-0.0177,-0.0151,-0.0153,-0.0155,-0.0247,-0.0249,-0.025,-0.0251,-0.0231,-0.0229,-0.0227,-0.0187,0,0,-0.022,-0.022,0,0,0,0,0,0,0,0,-0.021,-0.0209,-0.0172,-0.0173,-0.0175,-0.0186,-0.0168,-0.0159,-0.0247,-0.0237,-0.025,-0.0252,-0.0201,-0.0201,-0.0223,-0.0186,-0.0186,-0.022,-0.0219,-0.0218,-0.0218,0,0,0,0,0,0,0,-0.0209,-0.0209,-0.0162,-0.017,-0.0171,-0.019,-0.0194,-0.0168,-0.0223,-0.0238,-0.0241,-0.0217,-0.0204,-0.0225,-0.0223,-0.0185,-0.022,-0.0219,-0.0217,-0.0216,-0.0113,-0.0112,0,0,0,0,0,0,-0.0174,-0.0209,-0.0161,-0.016,-0.0178,-0.0186,-0.0191,-0.0194,-0.0224,-0.0226,-0.0215,-0.0221,-0.0228,-0.0225,-0.0222,-0.016,-0.0218,-0.0216,-0.0215,-0.0115,-0.0113,-0.0111,0,0,0,0,0,0,-0.0176,-0.0171,-0.016,-0.0171,-0.0169,-0.0182,-0.0185,-0.0193,-0.0199,-0.0204,-0.0209,-0.021,-0.0229,-0.0225,-0.0178,-0.016,-0.0215,-0.0213,-0.0116,-0.0114,-0.0112,-0.0045,0,0,0,0,0,0,-0.0179,-0.0173,-0.0176,-0.0169,-0.0166,-0.012,-0.0183,-0.0192,-0.0175,-0.0182,-0.02,-0.0202,-0.023,-0.0181,-0.0176,-0.0158,-0.0212,-0.0118,-0.0115,-0.0113,-0.0049,-0.0041,-0.0034,0,0,0,0,0,-0.0182,-0.0165,-0.0177,-0.0171,-0.0167,-0.0116,-0.0118,-0.0143,-0.0173,-0.016,-0.0172,-0.0201,-0.0161,-0.0177,-0.0172,-0.0153,-0.012,-0.0116,-0.0113,-0.0053,-0.0042,-0.0034,0,0,0,0,0,0,-0.0193,-0.0171,-0.0185,-0.0165,-0.013,-0.0125,-0.0111,-0.0121,-0.0127,-0.0131,-0.0164,-0.0163,-0.0122,-0.0134,-0.0151,-0.0116,-0.0151,-0.0146,-0.0107,-0.0097,-0.009,-0.0073,-0.021,0,0,0,0,0,-0.0191,-0.0174,-0.0149,-0.0123,-0.0109,-0.0108,-0.0095,-0.0094,-0.0084,-0.0091,-0.0099,-0.0107,-0.0106,-0.0097,-0.0092,-0.0053,-0.0084,-0.0043,-0.0035,-0.0028,-0.0011,-0.0049,-0.0044,-0.01,-0.01,-0.01,0,0,-0.0178,-0.0164,-0.0152,-0.0122,-0.0111,-0.0111,-0.0108,-0.0058,-0.0054,-0.0079,-0.0075,-0.0066,-0.0086,-0.006,-0.0043,-0.0066,-0.0028,-0.0024,-0.0018,-0.0004,-0.0045,-0.004,-0.0035,-0.0098,-0.0098,-0.0098,0,0,-0.0169,-0.0137,-0.015,-0.0126,-0.0082,-0.0069,-0.0044,-0.0019,-0.0006,0.0041,-0.0002,0.0022,0.0046,0.0012,0.0,0.0063,0.0019,0.0072,0.0122,0.0085,0.0089,0.0092,0.0057,0.0056,0.0069,0.0069,0.007,0,-0.0166,-0.0179,-0.0134,-0.0151,-0.0124,-0.0055,-0.0059,-0.0029,0.0013,0.0066,0.006,0.0095,0.0067,0.0076,0.0083,0.0077,0.0062,0.0084,0.0093,0.0096,0.0097,0.0061,0.0059,0.0073,0.0073,0.0072,0.0072,0,-0.0214,-0.02,-0.0183,-0.0198,-0.0164,-0.0114,-0.0065,-0.0023,0.0033,0.01,0.0187,0.0168,0.0202,0.0176,0.0148,0.0155,0.0141,0.0109,0.0066,0.0107,0.0066,0.0063,0.0078,0.0077,0.0076,0.0075,0,0,-0.0238,-0.0228,-0.0223,-0.0201,-0.0168,-0.0115,-0.0101,-0.0007,0.0044,0.0142,0.0203,0.0229,0.0308,0.0298,0.0269,0.0217,0.0194,0.0183,0.0179,0.0143,0.013,0.0042,0.0029,0.0173,0.0174,0.0174,0.0095,0,-0.0281,-0.0305,-0.0301,-0.0259,-0.0232,-0.0173,-0.0139,-0.0034,0.0052,0.0138,0.0227,0.0307,0.0335,0.0356,0.0331,0.025,0.0193,0.022,0.0102,0.0098,0.0009,0.0025,0.0023,-0.0053,0.0092,0.0091,0.0091,0,-0.0338,-0.0322,-0.0324,-0.0221,-0.0207,-0.0184,-0.008,-0.0037,0.0101,0.0186,0.0312,0.0399,0.0452,0.04,0.0367,0.0401,0.0282,0.0183,0.0178,0.0073,0.0004,-0.007,-0.0065,0.0085,0.0086,0.0086,0.0086,0,-0.0317,-0.0307,-0.0284,-0.0264,-0.0184,-0.0153,-0.0099,0.0012,0.0124,0.0231,0.0345,0.0442,0.0537,0.0435,0.0372,0.0369,0.0248,0.0207,0.0004,-0.0003,-0.0041,-0.0052,0.0089,0.0089,0.009,0.009,0.009,0,-0.0316,-0.0273,-0.0258,-0.0218,-0.0132,-0.01,0.0014,0.0063,0.0187,0.0363,0.0431,0.0541,0.0554,0.0541,0.0383,0.0241,0.0295,0.002,-0.0029,-0.0018,-0.0026,0.0067,0.0065,0.0087,0.0088,0.0088,0.0089,0,-0.0257,-0.027,-0.02,-0.0136,-0.0104,-0.0029,0.012,0.0218,0.0316,0.0492,0.0568,0.0704,0.0645,0.056,0.0369,0.0303,0.0088,-0.0025,-0.0002,-0.0049,-0.0148,-0.0145,-0.0228,-0.0232,-0.0235,-0.0238,-0.024,0,-0.024,-0.0201,-0.0125,-0.007,-0.003,0.0079,0.0177,0.0287,0.0413,0.0591,0.0705,0.0715,0.0761,0.05,0.0226,-0.0069,-0.0085,-0.0208,-0.0249,-0.0141,-0.0181,-0.0172,-0.0165,-0.0266,-0.0269,-0.027,-0.0272,0,-0.0156,-0.013,-0.0069,0.0037,0.0132,0.0257,0.0403,0.0532,0.0682,0.0831,0.0998,0.102,0.0733,0.0473,0.0067,-0.0138,-0.0146,-0.0261,-0.0142,-0.0197,-0.0187,-0.0223,-0.0213,-0.0289,-0.0287,-0.0286,-0.0285,-0.0284,-0.0091,-0.0024,0.0056,0.0165,0.0277,0.0453,0.0594,0.0771,0.0992,0.122,0.1154,0.1173,0.0803,0.0256,-0.0081,-0.0388,-0.0405,-0.0436,-0.0426,-0.0414,-0.0416,-0.0414,-0.0557,-0.0557,-0.0557,-0.0557,-0.0557,0,0.0001,0.0081,0.0186,0.0335,0.0487,0.0529,0.0771,0.0936,0.1213,0.132,0.1418,0.1039,0.0686,0.0268,-0.0227,-0.051,-0.0478,-0.0565,-0.0461,-0.0447,-0.0433,-0.043,-0.0578,-0.0578,-0.0578,-0.0578,0,0,0.0057,0.0186,0.0251,0.0501,0.062,0.086,0.1012,0.1249,0.1393,0.1494,0.1476,0.1293,0.0788,0.0417,-0.0046,-0.0278,-0.0254,-0.031,-0.0276,-0.0088,-0.0068,-0.0367,-0.0349,0,0,0,0,0]}],[{"header":{"parameterUnit":"m.s-1","parameterCategory":2,"la1":30.2991,"la2":30.254,"lo1":-89.0895,"lo2":-89.0444,"dy":0.0017,"dx":0.0017,"nx":28,"ny":28,"refTime":"2025-06-07T21:00:00:Z","depth":"4","parameterNumber":2,"parameterNumberName":"U-component_of_CURRENTS"},"data":[0,0,0,0,0,0,0,0,0,0,0,0,0,0,0,0,0,0,0,0,0,0,0,0,0,0,0,0,0,0,0,0,0,0,0,0,0,0,0,0,0,0,0,0,0,0,0,0,0,0,0,0,0,0,0,0,0,0,0.0612,0.0613,0,0.0685,0.0686,0.0687,0.0655,0.0652,0.065,0.0648,0.092,0.0929,0.0938,0,0,0,0,0,0,0,0,0,0,0,0,0,0.0552,0.0553,0.0612,0.0613,0.0614,0.0685,0.0686,0.0688,0.0655,0.0652,0.065,0.0647,0.0917,0.0928,0.0939,0,0,0,0,0,0,0,0,0,0,0,0,0,0.06,0.0553,0.0612,0.0603,0.0603,0.0685,0.0686,0.0688,0.0656,0.0652,0.0649,0.0646,0.0913,0.0927,0.094,0.109,0,0,0.0983,0.0989,0,0,0,0,0,0,0,0,0.0597,0.0603,0.0604,0.0604,0.0604,0.0654,0.0764,0.0831,0.0656,0.0639,0.0648,0.0645,0.085,0.0869,0.0892,0.1103,0.1115,0.0984,0.0992,0.0998,0.1002,0,0,0,0,0,0,0,0.0594,0.06,0.0645,0.0605,0.0605,0.0632,0.0634,0.0777,0.0768,0.0641,0.0638,0.0641,0.0851,0.0878,0.0898,0.1119,0.0984,0.0996,0.1004,0.101,0.1594,0.16,0,0,0,0,0,0,0.0576,0.0597,0.0643,0.0647,0.0588,0.0635,0.0638,0.0644,0.0762,0.0774,0.0643,0.0639,0.0856,0.0882,0.0908,0.1157,0.0998,0.1011,0.1019,0.1586,0.1595,0.1603,0,0,0,0,0,0,0.0575,0.058,0.064,0.062,0.0629,0.0638,0.0646,0.0647,0.0689,0.0761,0.0777,0.0683,0.0855,0.0889,0.1108,0.1164,0.1017,0.103,0.1578,0.1589,0.1599,0.1614,0,0,0,0,0,0,0.0573,0.0579,0.0585,0.0619,0.0629,0.0669,0.0649,0.0651,0.0693,0.0688,0.0803,0.0822,0.0855,0.1087,0.1121,0.118,0.1041,0.1569,0.1583,0.1596,0.1604,0.1624,0.1641,0,0,0,0,0,0.057,0.0571,0.0585,0.0591,0.0635,0.0669,0.0678,0.0676,0.0698,0.0707,0.0854,0.0819,0.1195,0.1107,0.1144,0.1208,0.1562,0.1579,0.1595,0.1596,0.162,0.164,0,0,0,0,0,0,0.055,0.057,0.0584,0.0593,0.0626,0.0661,0.07,0.0708,0.0827,0.0872,0.0936,0.097,0.1177,0.1232,0.1131,0.1428,0.1366,0.139,0.1354,0.1378,0.1395,0.1187,0.1052,0,0,0,0,0,0.0553,0.0589,0.0592,0.0632,0.0649,0.0696,0.072,0.0728,0.0828,0.0872,0.0967,0.1117,0.1277,0.1354,0.1494,0.1675,0.1643,0.1744,0.1762,0.1776,0.1643,0.1722,0.1729,0.1656,0.1656,0.1656,0,0,0.0565,0.0594,0.061,0.0636,0.0692,0.0698,0.0705,0.0771,0.079,0.0902,0.1033,0.1199,0.1352,0.1541,0.1635,0.1586,0.1808,0.1796,0.1806,0.1662,0.1739,0.1743,0.1748,0.1667,0.1665,0.1663,0,0,0.0603,0.0642,0.066,0.0689,0.0753,0.076,0.078,0.0845,0.0884,0.1037,0.115,0.1334,0.1562,0.1659,0.1743,0.1959,0.1915,0.2052,0.1949,0.2034,0.2035,0.2035,0.2072,0.2075,0.2041,0.2042,0.2042,0,0.0608,0.0635,0.0676,0.0703,0.0735,0.0783,0.0799,0.0843,0.0975,0.104,0.1075,0.1432,0.158,0.1769,0.1834,0.1978,0.2001,0.1842,0.204,0.2039,0.2039,0.2076,0.2079,0.2044,0.2044,0.2044,0.2043,0,0.0633,0.0666,0.0709,0.0743,0.0773,0.0828,0.0859,0.093,0.1008,0.1047,0.1262,0.1469,0.1654,0.177,0.1853,0.1975,0.1989,0.206,0.1937,0.2043,0.2083,0.2085,0.2048,0.2047,0.2046,0.2046,0,0,0.0605,0.0692,0.0707,0.0744,0.0808,0.0837,0.09,0.0947,0.1005,0.1126,0.1211,0.1475,0.1571,0.167,0.1844,0.1871,0.196,0.1935,0.1938,0.1882,0.2105,0.1957,0.1945,0.207,0.207,0.2069,0.2153,0,0.0615,0.0656,0.0696,0.0758,0.0782,0.0857,0.0904,0.0972,0.1058,0.1157,0.1304,0.1479,0.1544,0.1693,0.1732,0.1898,0.1955,0.1924,0.2079,0.208,0.1863,0.1938,0.2067,0.2154,0.2155,0.2155,0.2155,0,0.0602,0.0638,0.0678,0.0782,0.0803,0.0837,0.0946,0.1002,0.1116,0.121,0.1327,0.1439,0.154,0.1613,0.1758,0.1739,0.1896,0.1976,0.1986,0.1788,0.193,0.2024,0.2158,0.2158,0.2158,0.2157,0.2157,0,0.0555,0.0634,0.0675,0.0709,0.0798,0.0862,0.0923,0.1029,0.1106,0.1249,0.133,0.1427,0.1559,0.1638,0.1782,0.1801,0.1897,0.2001,0.2002,0.1996,0.2087,0.2084,0.2111,0.2111,0.2111,0.211,0.211,0,0.0543,0.0581,0.0668,0.0691,0.0761,0.0858,0.0953,0.1039,0.1173,0.126,0.1375,0.1455,0.1568,0.1645,0.1745,0.1809,0.1905,0.1903,0.1982,0.2116,0.2116,0.2092,0.2088,0.2114,0.2113,0.2112,0.2112,0,0.0496,0.0551,0.0599,0.07,0.0741,0.0804,0.0958,0.1026,0.1176,0.1294,0.1344,0.1484,0.1556,0.1635,0.1795,0.1803,0.1873,0.1933,0.1998,0.2095,0.1924,0.1923,0.1869,0.1864,0.186,0.1856,0.1853,0,0.0473,0.0488,0.0581,0.062,0.0679,0.0785,0.0855,0.1015,0.1091,0.1296,0.1342,0.1463,0.1545,0.159,0.1691,0.1786,0.1855,0.1866,0.1881,0.1803,0.1888,0.1894,0.1899,0.1846,0.1845,0.1844,0.1843,0,0.0415,0.0454,0.0491,0.0556,0.0637,0.0716,0.0837,0.0884,0.1074,0.1202,0.1316,0.1379,0.1477,0.1518,0.161,0.1704,0.178,0.1822,0.1833,0.1848,0.1776,0.1866,0.1875,0.1828,0.183,0.1831,0.1832,0,0.037,0.0378,0.0426,0.0497,0.0577,0.0643,0.0715,0.0827,0.0923,0.1154,0.1173,0.1336,0.1445,0.1485,0.1552,0.1586,0.1617,0.1609,0.1633,0.165,0.1537,0.141,0.1354,0,0,0,0,0,0.0321,0.033,0.0368,0.0437,0.0516,0.0568,0.0698,0.0779,0.0942,0.0995,0.1094,0.1183,0.129,0.1358,0.1363,0.1467,0.1608,0.1466,0.1606,0.1744,0.1762,0.1647,0,0,0,0,0,0,0.0285,0.0312,0.0333,0.0379,0.0419,0.0499,0.0579,0.0692,0.0734,0.0904,0.0962,0.1101,0.1206,0.1266,0.1332,0.1356,0.1423,0.1564,0.1561,0.1735,0.175,0.1764,0.1653,0,0,0,0,0]},{"header":{"parameterUnit":"m.s-1","parameterCategory":2,"la1":30.2991,"la2":30.254,"lo1":-89.0895,"lo2":-89.0444,"dy":0.0017,"dx":0.0017,"nx":28,"ny":28,"refTime":"2025-06-07T21:00:00:Z","depth":"4","parameterNumber":3,"parameterNumberName":"V-component_of_CURRENTS"},"data":[0,0,0,0,0,0,0,0,0,0,0,0,0,0,0,0,0,0,0,0,0,0,0,0,0,0,0,0,0,0,0,0,0,0,0,0,0,0,0,0,0,0,0,0,0,0,0,0,0,0,0,0,0,0,0,0,0,0,-0.0055,-0.0055,0,-0.0106,-0.0107,-0.0107,-0.0017,-0.0014,-0.0011,-0.0008,-0.0007,-0.001,-0.0013,0,0,0,0,0,0,0,0,0,0,0,0,0,0.0039,0.0037,-0.0055,-0.0055,-0.0056,-0.0106,-0.0107,-0.0108,-0.0018,-0.0014,-0.001,-0.0006,-0.0006,-0.001,-0.0013,0,0,0,0,0,0,0,0,0,0,0,0,0,-0.0007,0.0036,-0.0054,-0.0016,-0.0013,-0.0106,-0.0107,-0.0108,-0.0019,-0.0014,-0.0009,-0.0005,-0.0005,-0.0009,-0.0014,-0.0135,0,0,-0.0027,-0.0029,0,0,0,0,0,0,0,0,-0.0005,-0.0011,-0.0021,-0.0019,-0.0016,-0.0049,-0.0074,-0.0114,-0.002,-0.0018,-0.0008,-0.0002,-0.0019,-0.0022,-0.0045,-0.0135,-0.0135,-0.0027,-0.003,-0.0032,-0.0033,0,0,0,0,0,0,0,-0.0002,-0.0009,-0.0076,-0.0022,-0.0019,-0.0025,-0.0025,-0.0082,-0.0044,-0.0018,-0.0011,-0.0016,-0.0017,-0.0041,-0.0044,-0.0135,-0.0027,-0.0031,-0.0034,-0.0036,-0.0227,-0.0229,0,0,0,0,0,0,0.0006,-0.0006,-0.0074,-0.0078,0.0003,-0.003,-0.003,-0.0044,-0.0045,-0.004,-0.002,-0.0012,-0.0036,-0.0039,-0.0043,-0.0112,-0.0032,-0.0036,-0.0039,-0.0224,-0.0227,-0.023,0,0,0,0,0,0,0.0007,-0.0001,-0.0072,-0.0041,-0.005,-0.0035,-0.0052,-0.0048,-0.0057,-0.0047,-0.004,-0.0031,-0.0032,-0.0037,-0.0079,-0.0113,-0.0038,-0.0042,-0.0221,-0.0225,-0.0228,-0.0297,0,0,0,0,0,0,0.001,-0.0,-0.0009,-0.0041,-0.0051,-0.0115,-0.0057,-0.0052,-0.0068,-0.0057,-0.0056,-0.0051,-0.0029,-0.0073,-0.0084,-0.0118,-0.0045,-0.0218,-0.0223,-0.0227,-0.0292,-0.0303,-0.0312,0,0,0,0,0,0.0013,0.0001,-0.0009,-0.0017,-0.0064,-0.0116,-0.0123,-0.0097,-0.0073,-0.0087,-0.0083,-0.005,-0.0108,-0.008,-0.0091,-0.0127,-0.0216,-0.0222,-0.0227,-0.0287,-0.03,-0.0312,0,0,0,0,0,0,0.0044,0.0007,-0.0003,-0.0025,-0.0069,-0.0099,-0.0115,-0.0115,-0.0132,-0.0124,-0.0098,-0.0096,-0.0144,-0.0142,-0.011,-0.0196,-0.0153,-0.0161,-0.0195,-0.0207,-0.0217,-0.0161,-0.0049,0,0,0,0,0,0.0036,0.0012,-0.0031,-0.0058,-0.0082,-0.0113,-0.0132,-0.0133,-0.0153,-0.0154,-0.0168,-0.0177,-0.0189,-0.0196,-0.0222,-0.029,-0.0269,-0.0316,-0.0327,-0.0335,-0.0299,-0.0323,-0.0331,-0.0248,-0.0248,-0.0248,0,0,0.0048,0.0012,0.0007,-0.0055,-0.0091,-0.0094,-0.0112,-0.016,-0.0159,-0.016,-0.0187,-0.0229,-0.0217,-0.027,-0.0291,-0.0263,-0.0357,-0.0342,-0.0349,-0.0306,-0.0329,-0.0337,-0.0344,-0.0252,-0.0251,-0.025,0,0,0.0075,0.0008,0.002,-0.0022,-0.0086,-0.0114,-0.0129,-0.0194,-0.0218,-0.0286,-0.0264,-0.032,-0.0375,-0.036,-0.0353,-0.0446,-0.0416,-0.047,-0.047,-0.0497,-0.0502,-0.0507,-0.0518,-0.0523,-0.0467,-0.0467,-0.0467,0,0.0101,0.0091,0.001,0.0007,-0.0013,-0.011,-0.0096,-0.0152,-0.0224,-0.0251,-0.0293,-0.0385,-0.0402,-0.0404,-0.0429,-0.0465,-0.0468,-0.0422,-0.0506,-0.051,-0.0514,-0.0524,-0.0528,-0.0471,-0.0471,-0.047,-0.047,0,0.0148,0.0137,0.0121,0.0099,0.0061,0.0022,-0.005,-0.0114,-0.0193,-0.0242,-0.0342,-0.0425,-0.0448,-0.05,-0.0489,-0.0526,-0.0519,-0.0523,-0.0466,-0.0526,-0.0534,-0.0537,-0.0477,-0.0475,-0.0474,-0.0473,0,0,0.0213,0.0178,0.0173,0.0169,0.0094,0.006,0.0032,-0.0025,-0.0046,-0.0205,-0.024,-0.0347,-0.0431,-0.0429,-0.0479,-0.0526,-0.0588,-0.0536,-0.0536,-0.0529,-0.064,-0.0618,-0.0619,-0.0613,-0.0614,-0.0614,-0.0644,0,0.0276,0.0303,0.0272,0.0282,0.0272,0.0184,0.0168,0.0094,-0.0014,-0.0095,-0.0236,-0.0303,-0.039,-0.0436,-0.0502,-0.0569,-0.0596,-0.0578,-0.0595,-0.0595,-0.0554,-0.0621,-0.0616,-0.0646,-0.0647,-0.0647,-0.0648,0,0.0327,0.0331,0.0377,0.0341,0.0332,0.0342,0.0266,0.0234,0.012,0.0027,-0.0086,-0.0196,-0.0301,-0.0379,-0.0518,-0.0508,-0.0553,-0.062,-0.0622,-0.0563,-0.0578,-0.057,-0.0653,-0.0653,-0.0652,-0.0652,-0.0652,0,0.0359,0.0382,0.0416,0.0405,0.0378,0.0385,0.0363,0.0276,0.0226,0.0113,0.0046,-0.0103,-0.0203,-0.0311,-0.0478,-0.0489,-0.0627,-0.0649,-0.0661,-0.066,-0.0635,-0.0629,-0.0689,-0.0689,-0.0689,-0.0689,-0.0689,0,0.0388,0.0404,0.0439,0.0442,0.0465,0.0431,0.0425,0.0374,0.0302,0.0247,0.0111,0.0017,-0.0195,-0.0322,-0.0441,-0.0578,-0.0591,-0.0651,-0.0666,-0.067,-0.0668,-0.0639,-0.0632,-0.069,-0.069,-0.069,-0.069,0,0.0384,0.0415,0.0443,0.0467,0.0475,0.0482,0.0471,0.0451,0.0389,0.0317,0.0285,0.0102,-0.0071,-0.0259,-0.044,-0.0525,-0.0648,-0.0664,-0.0646,-0.0661,-0.0666,-0.0664,-0.0685,-0.0684,-0.0684,-0.0683,-0.0683,0,0.038,0.0404,0.0459,0.048,0.0496,0.0514,0.0517,0.0485,0.0461,0.0353,0.0314,0.0153,0.0016,-0.0232,-0.0415,-0.061,-0.0626,-0.0661,-0.0676,-0.0654,-0.0666,-0.0664,-0.0662,-0.0682,-0.0682,-0.0682,-0.0682,0,0.0364,0.0398,0.0424,0.0478,0.0509,0.0531,0.0541,0.0538,0.0489,0.0448,0.0329,0.0182,0.0,-0.0222,-0.0362,-0.0506,-0.0643,-0.0657,-0.0659,-0.0673,-0.0651,-0.0664,-0.0662,-0.0681,-0.0681,-0.0681,-0.0681,0,0.0348,0.0366,0.0416,0.0456,0.0496,0.052,0.0538,0.052,0.05,0.0409,0.0372,0.0173,0.0052,-0.0165,-0.031,-0.0446,-0.0478,-0.05,-0.0511,-0.0514,-0.0467,-0.0415,-0.0376,0,0,0,0,0,0.0326,0.0347,0.0384,0.0429,0.0471,0.0499,0.0528,0.0543,0.0528,0.0459,0.042,0.0256,0.0017,-0.0104,-0.0234,-0.0307,-0.0504,-0.046,-0.0535,-0.0672,-0.0674,-0.0647,0,0,0,0,0,0,0.0309,0.0344,0.037,0.0397,0.0427,0.0469,0.0496,0.0499,0.0463,0.0432,0.0299,0.0246,0.0003,0.0085,-0.0235,-0.0279,-0.0335,-0.0574,-0.0576,-0.0671,-0.0673,-0.0674,-0.0647,0,0,0,0,0]}]]